Location: *
(34.6903°N, 135.5184°E)
Time: 16:08:40
(UTC+00:00)

ADEOS - Pass Details

Date: 22 September 2019
Orbit: 792 x 795 km, 98.8° (Epoch: 19 October)

Event Time Altitude Azimuth Distance (km) Brightness Sun altitude
Rises 18:26:19 0° 15° (NNE) 3,297 7.3 -28.8°
Reaches altitude 10° 18:28:40 10° 18° (NNE) 2,364 6.5 -28.4°
Maximum altitude 18:33:52 72° 102° (ESE) 835 3.7 -27.4°
Enters shadow 18:34:43 59° 158° (SSE) 910 3.8 -27.2°
